BREEZE-M DEB (TANK), 36103

Orbit data source: Space-Track

BREEZE-M DEB (TANK), 36103 is space debris in HEO originally from a launch on Tue, 24 Nov 2009 UTC launched from the Tyuratam Missile And Space Complex (TTMTR). Debris objects in space refer to the collection of defunct objects orbiting the Earth. Examples of debris include non-operational satellites, rocket bodies, and fragments generated from explosions, collisions, or faulty payload assembly.

Loading next visibility...
Identifier
36103, 2009-065C
Orbit
HEO
Country
Flag of CISCIS
Related business
Manufacturer
Khrunichev
Mission
Spacecraft
Bus & Motor
BRIZ TANK, Unknown motor
Mass
~1,000 kg wet, 1,000 kg dry
Launch date (UTC)
2009-11-24 (17 years ago)
Launch vehicle
Unknown
Launch site
Tyuratam Missile And Space Complex (TTMTR)
Object type
Payload
Rocket body
Debris
Shape & HBR
Torus, 3.0 m
Radar Cross Section
8.218 m², Large (>1 m²)

Expand to show TLE details & history
Last TLE update: 19 hours ago

TLE from 19 hours ago
0 BREEZE-M DEB (TANK)
1 36103U 09065C   26254.31263370  .00002931  00000-0  47962-3 0  9993
2 36103  49.3843 341.3708 5219624   8.7749 357.6558  5.26823028312625
Epoch: 2026-09-11T07:30Z
TLE epoch observation values (Epoch: 2026-09-11T07:30:11.551Z)
Latitude
-0.00009°
Longitude
-121.51147°
Altitude
311.617 km
Speed
9.519 km/s
True Right ascension
22h 45m 29s
True Declination
0° 00' 00"
Sunlit
Object was in full shadow at epoch
Visualization orbit readout
Latitude
Unknown
Longitude
Unknown
Altitude
Unknown
Speed
Unknown
Apparent Right ascension
Unknown
Apparent Declination
Unknown
Sunlit
N/A
Visualization observer readout
Local Sidereal Time
19:06:13
Azimuth
Unknown
Elevation
Unknown
Doppler factor
Unknown
Orbital elements
Apogee altitude
14,856.802 km
Perigee altitude
291.607 km
Semi-major axis
13,952.341 km
Eccentricity
0.52196
Inclination
49.3843°
RAAN
341.3708°
Arg. of periapsis
8.7749°
True anomaly
351.27329°
Mean anomaly
357.6558°
Eccentric anomaly
355.10271°
Mean motion
1.31696 °/min
Orbital period
273.36 mins
BSTAR
0.00047962
Loading maneuver chart data...
Computing Atmospheric mass density...
Loading historical data...
Loading historical data...
Loading historical data...
Loading historical data...
Loading historical data...
Loading historical data...
Loading historical data...
Other satellites on launch #65 in the year 2009 (2009-11-24 UTC)

Documentation

Showing up to 5 results
|